CAPE
0 1 9 20 17 0 0 7 5 9 0 0 21 103 417 696 705 841 693 612 776 739 882 934 1112 1146 1141 1413 1874 2285 2520 2312 2182 2033 2015 1721 1458 1411 1464 1493 1548 1344 1438 1292
1 0 7 0 0 0 4 12 4 0 0 1 5 15 73 222 519 592 809 698 706 733 1003 1201 1369 1276 1239 1394 1672 2287 2614 2941 2899 2529 2530 2208 1680 1747 1777 1744 1724 2170 1624 1399
3 3 5 0 0 0 11 16 0 7 0 0 0 0 13 183 232 282 497 920 670 984 1242 863 402 314 633 1506 1845 2266 2693 2953 3208 3092 2736 2647 2488 2556 2106 2167 2017 2217 2215 1862
1 32 15 0 6 16 4 0 0 0 0 0 0 8 4 186 271 559 437 660 991 1044 1304 605 105 105 581 592 1272 2012 2658 3015 3170 3263 2946 2470 2614 2103 2057 1997 1877 1744 2097 2053
6 12 5 14 16 2 0 0 0 0 0 13 1 0 6 92 566 650 780 762 868 1311 1597 616 327 154 860 1305 1612 1674 2510 2906 2968 3075 3191 2938 2729 2465 2251 2092 2015 2297 2229 2409
0 4 18 7 21 0 0 0 0 0 0 6 27 0 23 0 408 899 1206 1007 833 1010 1677 1242 626 868 1440 1783 1792 1809 2338 2965 2983 2989 2885 2858 2679 2632 2227 1763 1949 1603 1797 1691
0 18 7 18 0 0 0 2 9 31 41 46 3 0 119 7 260 562 1262 1251 979 1093 1831 1743 1606 1777 2110 2025 1820 1892 2423 3152 3180 2952 2783 2588 2624 2565 2685 2339 1570 1484 1383 1043
0 4 0 0 2 30 0 16 18 16 76 75 55 18 133 287 612 915 1302 1476 1551 1571 1726 1829 2003 2107 1998 2090 2099 1963 2651 3050 3189 3133 3113 2882 2743 2381 1687 813 859 1078 1133 1673
0 33 6 13 20 0 30 14 5 0 41 2 11 1 245 470 843 1334 1440 1712 1873 1992 1995 2112 2118 2147 1523 1583 1078 1422 2606 3133 3313 3134 3127 2611 2064 1885 1509 1738 1223 1227 1264 1569
3 16 25 11 13 1 3 3 14 5 0 43 47 10 269 147 720 1418 1700 1857 2057 2197 2081 1724 1536 1420 1087 997 1207 1449 1892 2515 2347 1717 1840 1722 1824 1611 1700 1968 2032 1656 1734 1969
2 12 17 17 2 2 0 0 0 1 21 71 84 195 65 234 754 1242 1696 1958 1902 1755 1639 1395 1349 1401 1357 1342 1345 1395 1542 1553 1475 1099 1140 924 929 1007 1463 1280 1429 1688 1717 1683
0 4 5 0 0 0 6 0 0 22 72 32 6 146 355 573 647 1030 1693 1848 1865 2045 1864 1818 1770 1725 1820 1800 1797 1627 1563 1350 1081 1029 1025 766 756 893 897 976 731 767 627 831
0 4 25 24 57 0 0 15 50 5 53 11 60 454 728 716 871 1259 1797 1461 1530 2118 2186 1856 1810 1623 1322 1156 1157 1062 765 570 438 511 787 1100 1458 1378 1296 1022 880 909 976 879
0 2 143 119 45 7 5 65 0 21 48 30 14 156 1070 1002 1055 1251 1826 1783 1854 1933 1297 1168 1037 793 580 422 281 272 201 117 61 68 85 115 285 319 447 877 1474 1595 1575 1168
0 10 63 20 57 2 3 52 11 0 8 71 14 133 1017 1159 1161 1470 1671 1907 1496 1213 910 742 485 258 68 31 0 17 17 4 0 0 0 1 45 91 141 215 349 554 947 1084
0 14 12 10 0 17 10 4 0 23 54 55 38 282 1232 1423 1585 1622 1466 1090 971 694 462 202 77 36 13 0 0 0 0 0 0 2 1 5 10 8 11 6 8 84 135 280
2 46 16 16 0 0 0 17 81 116 73 94 77 1064 1265 1175 1191 1183 1052 929 682 383 245 101 16 0 0 0 0 0 0 4 9 12 8 5 0 0 1 0 2 17 20 22
12 31 37 56 62 0 208 194 84 25 14 4 59 531 873 1099 1037 877 780 586 341 160 68 23 0 0 0 0 0 1 2 5 5 6 3 5 4 3 3 2 3 6 0 0
47 37 45 221 15 216 146 27 12 46 161 78 168 550 775 747 568 453 318 224 79 45 18 1 0 0 0 1 1 1 3 3 1 0 0 0 2 4 5 7 8 6 6 5
68 72 69 42 19 55 100 16 1 24 7 186 213 340 510 464 399 511 177 55 29 3 0 0 0 0 0 1 0 0 0 0 0 1 1 4 5 2 4 5 5 6 6 5
94 55 73 75 24 240 141 74 2 3 441 148 95 288 447 441 657 334 78 26 0 0 0 0 0 0 1 0 0 0 0 0 3 3 3 1 4 3 9 7 11 8 5 7
216 168 64 182 13 230 186 88 30 627 384 137 172 327 427 400 185 107 29 1 0 0 0 0 0 0 0 0 0 0 0 2 0 5 1 7 2 1 2 2 4 1 2 4
423 534 630 229 384 341 281 407 514 331 317 234 308 220 242 174 110 35 0 0 0 0 0 0 0 0 0 0 0 0 4 2 7 1 1 0 1 1 3 1 2 2 2 3
628 609 433 309 450 402 371 354 231 233 257 246 197 136 106 87 9 0 0 0 0 0 0 0 0 0 0 0 0 6 5 2 1 1 1 2 2 1 1 2 0 3 2 3
425 300 535 870 585 388 263 224 210 219 192 128 109 55 16 0 0 0 0 0 0 0 0 0 0 0 0 0 0 4 5 4 5 3 2 1 1 1 2 1 1 1 4 2
352 130 161 54 582 241 311 213 189 134 90 32 1 0 0 0 0 0 0 0 0 0 0 0 0 0 0 0 0 0 2 0 1 5 0 2 3 4 2 2 3 2 0 0
CIN
-0 -3 -5 -12 -4 -0 -0 -3 -3 -2 -0 -0 -4 -22 -3 -18 -2 -4 -3 -2 -3 -12 -11 -28 -31 -9 -8 -3 -3 -1 -4 -1 -10 -1 -4 -7 -4 -3 -2 -4 -8 -25 -9 -6
-1 -2 -8 -0 -0 -0 -2 -3 -3 -0 -0 -1 -7 -4 -5 -16 -15 -2 -4 -6 -4 -6 -19 -28 -40 -53 -40 -9 -1 -1 -6 -3 -7 -1 -1 -5 -16 -13 -10 -14 -15 -7 -29 -28
-5 -2 -6 -0 -0 -1 -4 -7 -4 -3 -0 -0 -0 -0 -4 -29 -26 -19 -6 -4 -4 -18 -48 -39 -101 -125 -60 -21 -8 -11 -15 -17 -7 -4 -2 -2 -4 -2 -5 -1 -1 -0 -0 -9
-2 -9 -6 -0 -5 -5 -1 -0 -0 -0 -0 -0 -0 -19 -2 -16 -23 -37 -28 -4 -6 -9 -60 -46 -134 -91 -64 -71 -37 -8 -25 -41 -37 -11 -4 -3 -1 -7 -3 -3 -3 -4 -0 -1
-4 -6 -4 -2 -3 -5 -1 -0 -0 -0 -0 -3 -8 -0 -38 -10 -4 -18 -3 -4 -4 -6 -63 -53 -66 -103 -47 -48 -37 -30 -40 -61 -40 -7 -3 -1 -1 -1 -1 -1 -2 -1 -2 -0
-1 -4 -6 -7 -10 -0 -0 -0 -0 -0 -0 -7 -17 -0 -95 -11 -5 -33 -34 -23 -16 -5 -28 -34 -52 -43 -18 -16 -30 -36 -64 -69 -51 -22 -8 -7 -11 -2 -3 -12 -8 -15 -10 -6
-0 -6 -6 -6 -0 -0 -0 -8 -7 -8 -18 -16 -114 -0 -97 -18 -20 -12 -33 -30 -26 -7 -17 -28 -25 -18 -15 -31 -42 -39 -56 -45 -39 -26 -12 -7 -3 -1 -0 -1 -2 -4 -14 -20
-0 -2 -0 -0 -2 -5 -0 -8 -22 -73 -13 -12 -7 -6 -72 -31 -28 -37 -41 -48 -49 -30 -21 -20 -23 -30 -45 -49 -48 -63 -66 -43 -22 -20 -18 -14 -6 -1 -5 -23 -47 -21 -2 -5
-0 -10 -7 -11 -5 -1 -31 -5 -8 -0 -6 -11 -27 -21 -31 -4 -20 -37 -37 -46 -25 -12 -11 -9 -38 -28 -92 -95 -109 -88 -41 -20 -11 -7 -10 -13 -38 -37 -44 -37 -53 -13 -4 -1
-4 -5 -7 -6 -5 -1 -4 -13 -5 -4 -0 -5 -9 -21 -20 -42 -12 -36 -38 -29 -5 -4 -21 -58 -85 -86 -82 -95 -93 -79 -47 -19 -2 -1 -1 -1 -4 -24 -33 -21 -17 -26 -20 -8
-2 -6 -5 -4 -2 -3 -0 -0 -0 -10 -18 -10 -16 -6 -54 -47 -3 -15 -11 -19 -16 -20 -31 -57 -74 -84 -70 -55 -49 -32 -32 -19 -2 -5 -9 -18 -19 -9 -1 -1 -1 -1 -0 -1
-0 -8 -5 -0 -0 -0 -26 -0 -2 -6 -17 -103 -87 -50 -56 -32 -5 -2 -3 -5 -3 -4 -5 -7 -19 -27 -31 -23 -16 -24 -15 -18 -14 -20 -1 -3 -1 -1 -2 -0 -4 -0 -1 -1
-2 -60 -12 -10 -15 -0 -0 -8 -7 -71 -10 -18 -63 -44 -31 -24 -19 -14 -3 -16 -56 -1 -3 -7 -13 -61 -69 -96 -92 -62 -78 -121 -137 -107 -32 -4 -2 -1 -1 -2 -2 -1 -1 -1
-0 -8 -12 -29 -27 -5 -7 -9 -0 -9 -10 -33 -85 -80 -1 -22 -52 -24 -1 -3 -7 -4 -78 -122 -138 -173 -166 -180 -224 -204 -192 -238 -239 -246 -206 -149 -112 -99 -62 -34 -5 -1 -2 -1
-0 -56 -61 -86 -28 -7 -15 -10 -1 -0 -11 -17 -22 -4 -14 -35 -20 -23 -9 -1 -23 -23 -104 -141 -207 -254 -275 -276 -0 -337 -318 -322 -16 -0 -0 -41 -238 -193 -153 -85 -31 -13 -1 -3
-0 -12 -16 -6 -3 -9 -13 -4 -0 -15 -9 -22 -23 -7 -42 -66 -58 -29 -20 -45 -52 -91 -169 -274 -304 -291 -219 -0 -0 -0 -0 -0 -0 -2 -2 -1 -2 -1 -1 -2 -6 -98 -49 -18
-46 -25 -28 -5 -2 -0 -0 -4 -7 -6 -24 -42 -21 -35 -74 -78 -75 -72 -76 -79 -87 -177 -204 -229 -173 -0 -0 -0 -0 -0 -0 -2 -2 -1 -1 -1 -0 -0 -0 -0 -5 -3 -4 -8
-19 -6 -6 -9 -3 -1 -17 -29 -34 -10 -80 -149 -97 -80 -39 -38 -79 -97 -100 -120 -176 -233 -294 -348 -0 -0 -0 -0 -0 -1 -1 -2 -1 -1 -1 -1 -0 -0 -1 -1 -1 -1 -0 -0
-7 -8 -8 -12 -37 -12 -48 -71 -46 -59 -9 -135 -73 -53 -41 -58 -105 -130 -193 -209 -314 -349 -390 -261 -0 -0 -0 -1 -2 -1 -1 -2 -1 -0 -0 -0 -1 -1 -1 -1 -1 -1 -1 -1
-15 -10 -9 -9 -15 -11 -4 -142 -61 -100 -1 -75 -81 -62 -46 -63 -34 -62 -246 -320 -356 -405 -0 -0 -0 -0 -0 -1 -0 -0 -0 -0 -0 -1 -1 -1 -1 -1 -0 -1 -1 -1 -0 -1
-12 -10 -8 -7 -8 -10 -10 -67 -98 -63 -25 -78 -110 -53 -32 -23 -53 -137 -303 -372 -0 -0 -0 -0 -0 -0 -1 -0 -0 -0 -0 -0 -1 -1 -0 -0 -0 -1 -0 -1 -0 -1 -0 -1
-4 -6 -17 -12 -143 -13 -41 -98 -67 -41 -32 -85 -91 -47 -30 -97 -168 -243 -347 -102 -0 -0 -0 -0 -0 -0 -0 -0 -0 -0 -0 -1 -0 -0 -0 -0 -0 -0 -1 -0 -0 -0 -0 -0
-3 -7 -26 -93 -8 -51 -59 -51 -72 -55 -57 -86 -65 -117 -112 -156 -215 -300 -38 -0 -0 -0 -0 -0 -0 -0 -0 -0 -0 -0 -1 -1 -0 -0 -1 -0 -0 -0 -0 -0 -0 -0 -0 -0
-43 -47 -13 -38 -53 -49 -122 -123 -121 -97 -100 -106 -136 -179 -196 -202 -310 -0 -0 -0 -0 -0 -0 -0 -0 -0 -0 -0 -0 -2 -0 -1 -0 -2 -1 -0 -0 -1 -1 -1 -0 -0 -0 -0
-9 -39 -17 -35 -87 -96 -118 -122 -112 -137 -145 -190 -202 -238 -295 -0 -0 -0 -0 -0 -0 -0 -0 -0 -0 -0 -0 -0 -0 -1 -0 -0 -0 -1 -1 -1 -1 -0 -0 -0 -1 -1 -0 -0
-17 -14 -25 -2 -58 -53 -89 -119 -150 -178 -213 -257 -104 -0 -0 -0 -0 -0 -0 -0 -0 -0 -0 -0 -0 -0 -0 -0 -0 -0 -1 -0 -1 -1 -1 -1 -1 -1 -0 -1 -0 -2 -1 -0
Wind_Speed
7 21 21 17 16 16 14 15 12 13 14 15 15 13 12 14 12 12 14 16 17 18 17 15 12 15 17 17 17 16 16 15 14 15 14 13 13 12 11 10 10 12 13 12
7 24 26 11 14 18 19 9 12 13 12 13 14 12 13 11 10 9 12 14 16 17 17 17 21 22 17 16 15 15 15 14 14 13 11 10 10 10 9 9 9 10 10 11
20 5 12 11 4 6 14 6 12 13 13 14 10 8 9 10 9 8 10 12 16 18 16 18 20 18 15 14 14 14 14 13 11 10 9 8 8 10 11 11 9 10 10 10
11 28 8 7 19 11 20 14 12 11 9 8 6 13 8 11 11 10 10 11 17 17 15 19 16 15 15 12 14 12 11 10 8 8 7 8 9 8 9 12 10 9 9 9
15 18 7 11 12 17 15 14 14 15 5 5 8 8 8 7 11 13 11 10 13 16 14 15 11 11 12 13 12 12 12 11 9 9 6 5 8 9 7 7 10 4 5 8
26 26 10 7 16 13 18 9 9 6 6 10 7 7 15 12 17 14 12 9 7 12 12 11 11 7 8 10 11 12 13 12 11 9 7 4 4 4 7 5 9 2 2 3
22 13 15 14 12 6 11 3 10 10 17 16 4 9 13 6 14 14 13 12 12 10 11 10 9 6 8 11 11 12 13 14 14 13 12 11 8 6 2 4 3 4 5 2
13 13 10 6 20 5 1 28 26 23 22 10 7 16 10 17 15 13 13 13 13 11 10 11 11 11 8 10 11 12 14 16 17 18 18 17 15 12 12 13 17 12 12 5
11 20 9 11 12 28 15 16 27 27 13 17 10 20 11 11 13 12 12 12 12 12 13 12 11 12 12 11 11 12 14 17 18 18 21 21 19 17 18 21 18 15 15 13
16 24 9 20 14 26 29 25 9 7 18 15 13 20 9 3 8 13 12 12 12 11 11 11 11 12 12 13 12 13 16 18 19 21 22 22 22 21 20 21 20 19 18 18
26 13 4 8 10 12 7 24 25 25 27 13 4 10 18 10 13 12 11 10 10 10 10 11 12 12 12 13 13 14 16 18 20 22 24 24 24 23 22 20 18 17 17 18
32 11 5 4 18 31 33 2 21 15 14 27 30 16 14 19 15 10 9 9 9 9 8 9 11 12 13 14 16 17 19 20 24 25 26 26 25 24 24 23 22 21 22 21
30 21 1 3 1 16 23 22 26 15 12 5 5 9 10 13 13 12 9 7 10 9 10 12 13 15 16 15 16 21 22 24 26 29 31 31 31 30 30 27 24 22 25 24
34 34 2 4 20 13 22 5 22 26 21 15 17 6 13 16 15 13 9 9 8 8 13 12 14 16 16 18 19 20 24 27 29 31 33 33 32 33 32 32 31 29 26 26
37 29 5 12 21 6 22 25 14 21 25 25 26 22 17 19 17 12 9 9 9 10 13 13 15 18 19 21 24 23 27 30 32 34 35 34 34 34 34 33 32 31 30 29
37 24 22 10 17 7 2 14 16 19 21 23 25 21 17 17 15 11 10 10 9 10 13 15 15 17 20 22 25 28 31 32 33 34 34 33 34 34 34 33 33 33 32 33
19 15 18 21 22 20 22 15 15 17 21 22 25 17 15 14 13 11 10 10 10 12 13 17 19 22 25 27 29 31 32 33 34 34 34 35 35 35 35 36 36 36 36 36
32 23 18 19 15 14 12 13 15 20 22 22 18 15 13 12 12 11 10 11 12 14 17 20 23 26 28 30 31 33 33 33 33 33 33 34 35 35 36 37 36 36 38 39
24 25 22 15 13 7 9 9 13 19 18 16 14 12 12 10 11 11 12 13 15 17 20 22 25 27 27 30 31 31 31 32 33 35 36 37 37 37 38 38 39 39 39 39
28 21 26 28 30 22 7 5 11 18 26 12 12 11 9 8 9 8 11 14 17 20 23 26 27 27 28 29 31 31 32 33 35 37 38 36 36 36 37 37 39 38 38 38
18 15 15 17 30 9 8 8 12 23 14 13 14 10 9 9 16 11 12 16 19 22 25 26 25 26 27 29 30 32 33 35 37 37 35 35 35 36 37 38 39 39 40 39
16 24 25 19 22 26 7 10 19 16 14 14 13 11 10 12 12 13 15 19 22 24 25 25 25 26 27 29 30 32 33 35 36 35 34 35 34 35 34 37 38 39 39 39
17 15 21 16 16 8 9 15 15 14 13 13 12 12 11 11 13 15 18 20 23 23 23 24 25 26 27 29 30 31 32 34 35 34 35 35 34 34 36 37 38 38 38 38
16 18 15 9 17 13 16 15 14 12 12 12 11 11 11 13 15 17 19 21 21 22 22 24 25 27 28 29 29 29 31 33 34 34 35 35 36 37 36 36 36 37 38 38
12 15 17 17 16 16 15 13 11 11 11 11 11 13 14 15 17 18 18 19 19 21 22 24 25 26 28 28 28 29 30 32 34 34 35 36 36 36 37 36 37 37 36 37
12 14 21 26 10 15 8 8 8 9 9 10 11 14 16 16 17 16 16 17 19 21 22 23 24 26 27 28 28 30 30 30 32 33 34 35 35 36 36 37 38 37 38 37
Wind_Direction
155 174 179 172 298 278 314 333 30 36 39 131 131 89 101 100 96 100 114 119 127 126 117 107 105 121 129 125 133 136 139 130 136 151 153 162 158 161 151 164 159 186 192 183
193 187 234 312 309 275 267 55 24 31 88 148 92 121 77 74 95 110 123 124 132 131 117 116 158 153 137 138 131 138 146 138 150 158 153 143 145 166 157 151 158 165 159 168
187 240 292 309 9 82 153 284 12 50 97 153 102 143 92 50 61 89 132 137 139 139 127 134 161 143 129 132 140 145 148 145 139 153 146 137 157 184 192 182 167 162 161 156
240 246 280 299 281 303 275 308 345 19 102 29 115 29 107 86 60 71 111 135 146 145 142 154 127 111 118 110 138 133 124 123 119 139 161 163 174 169 174 195 182 165 158 160
244 252 269 277 294 289 324 298 313 338 92 103 69 63 79 85 71 63 76 111 145 152 144 151 105 83 77 70 92 111 104 108 106 89 130 158 183 196 176 170 191 145 148 171
250 216 271 237 289 294 296 330 354 93 97 1 5 72 341 294 44 46 32 42 111 152 138 146 151 96 64 40 53 66 73 85 85 78 71 95 178 172 189 166 207 164 162 156
252 232 264 263 285 319 298 306 328 331 320 330 279 357 0 326 11 33 34 36 53 75 108 130 134 120 25 18 27 39 47 53 52 52 51 44 38 37 76 43 33 10 13 136
228 216 191 232 263 304 302 222 282 303 304 356 26 335 1 4 31 22 32 37 41 58 64 86 96 100 42 2 14 14 16 22 31 26 25 23 18 17 8 5 352 8 11 32
198 201 175 179 166 252 295 300 256 284 317 310 335 315 75 65 37 30 38 41 45 47 64 60 53 59 69 49 25 349 357 1 15 16 12 12 11 5 351 344 350 354 351 348
251 244 185 171 274 256 253 254 314 348 304 308 324 308 330 345 64 57 57 60 52 43 33 36 32 34 40 34 28 16 358 353 0 357 1 3 1 358 353 346 345 345 341 339
246 246 227 185 179 172 258 274 269 255 247 326 359 333 342 346 72 49 51 59 58 49 46 40 35 38 31 17 8 360 358 359 357 355 353 355 355 350 347 346 349 351 349 344
227 192 221 223 169 189 228 267 181 303 310 293 282 316 343 332 6 42 48 50 40 33 38 27 17 17 10 4 352 348 350 350 346 346 344 347 347 344 341 339 340 343 344 342
223 242 219 147 293 263 258 258 239 320 169 34 161 333 4 10 21 15 29 25 1 1 10 2 358 354 352 353 344 332 339 345 346 339 334 333 330 329 326 329 331 333 332 331
216 207 206 291 283 148 170 276 264 267 289 341 339 101 33 21 23 24 29 15 11 3 353 351 343 344 347 339 341 340 336 338 338 336 330 328 327 326 324 322 322 324 326 323
216 236 304 278 249 331 263 220 296 287 292 287 303 338 354 349 5 25 45 32 15 8 356 353 347 339 335 333 332 341 336 333 333 330 327 325 325 325 324 324 323 321 320 317
216 240 250 278 251 285 303 308 308 305 303 304 301 326 346 1 8 21 37 42 25 11 360 352 352 348 341 337 336 334 331 331 332 330 329 329 328 327 327 327 325 321 318 315
227 261 258 256 260 273 276 294 299 307 311 307 306 333 350 1 11 24 30 33 26 11 2 350 342 336 333 331 332 330 330 330 330 330 330 329 328 327 327 326 324 320 315 311
225 244 251 268 272 277 302 308 303 301 306 317 331 350 357 7 22 31 27 21 15 3 352 344 337 332 331 331 331 331 330 331 332 333 333 331 330 329 328 328 326 322 315 309
166 240 254 276 184 308 309 312 313 303 319 333 348 6 13 28 26 12 10 0 357 352 346 341 337 334 335 334 334 334 335 334 333 330 329 329 330 329 328 328 325 322 318 313
234 250 250 255 257 285 320 18 347 327 307 346 10 14 19 28 1 21 14 360 354 350 344 338 337 337 336 337 336 336 334 333 331 331 330 332 333 332 333 333 329 327 326 320
240 235 180 275 255 298 6 359 348 313 323 358 3 13 17 6 356 18 9 354 351 349 344 341 341 340 341 340 338 336 335 334 333 334 336 335 336 334 332 331 331 329 328 327
242 244 256 274 293 259 314 336 317 331 348 352 1 9 12 9 12 7 356 349 348 346 344 344 343 343 343 343 341 339 339 339 339 339 338 338 339 339 339 336 334 334 333 330
248 265 267 287 310 350 349 338 346 347 347 352 2 5 8 11 3 358 351 348 347 348 351 349 347 346 345 346 345 343 345 345 343 343 341 342 342 341 339 337 336 338 337 335
270 275 297 317 293 323 332 341 344 353 358 5 9 10 6 358 356 353 352 350 353 356 354 352 350 348 347 347 348 349 348 348 348 348 347 345 342 339 341 340 340 340 338 338
285 281 285 297 307 316 326 338 352 1 8 11 8 1 356 355 351 351 353 357 359 358 356 355 353 351 350 350 350 351 350 348 345 346 346 346 346 346 345 346 344 341 341 340
285 295 282 289 312 315 330 348 360 3 5 7 2 357 354 352 354 359 2 3 2 359 359 357 356 354 354 353 353 351 351 352 349 348 348 347 347 347 347 347 346 349 347 339